TimeCST,TemperatureF,Dew PointF,Humidity,Sea Level PressureIn,VisibilityMPH,Wind Direction,Wind SpeedMPH,Gust SpeedMPH,PrecipitationIn,Events,Conditions,WindDirDegrees,DateUTC
12:15 AM,10.4,4.8,78,29.90,10.0,West,10.4,17.3,N/A,Snow,Light Snow,280,2013-12-15 06:15:00
12:35 AM,10.4,4.8,78,29.89,10.0,WNW,10.4,16.1,N/A,Snow,Light Snow,290,2013-12-15 06:35:00
12:55 AM,10.2,4.5,78,29.88,7.0,West,8.1,-,N/A,Snow,Light Snow,280,2013-12-15 06:55:00
1:15 AM,9.5,4.3,79,29.88,5.0,WNW,9.2,18.4,N/A,Snow,Light Snow,290,2013-12-15 07:15:00
1:35 AM,9.1,2.8,76,29.89,5.0,WNW,12.7,21.9,N/A,Snow,Light Snow,290,2013-12-15 07:35:00
1:55 AM,8.6,2.3,76,29.89,7.0,West,9.2,16.1,N/A,Snow,Light Snow,280,2013-12-15 07:55:00
2:15 AM,7.7,1.9,77,29.90,10.0,WNW,8.1,-,N/A,Snow,Light Snow,290,2013-12-15 08:15:00
2:35 AM,6.8,0.7,76,29.91,10.0,West,11.5,23.0,N/A,,Overcast,280,2013-12-15 08:35:00
2:55 AM,5.5,-0.4,77,29.90,10.0,West,6.9,-,N/A,,Overcast,280,2013-12-15 08:55:00
3:15 AM,4.5,-1.3,77,29.90,10.0,West,9.2,17.3,N/A,,Mostly Cloudy,280,2013-12-15 09:15:00
3:35 AM,3.6,-1.7,79,29.90,10.0,West,9.2,-,N/A,,Scattered Clouds,280,2013-12-15 09:35:00
3:55 AM,2.8,-2.2,79,29.90,10.0,WNW,6.9,-,N/A,,Clear,290,2013-12-15 09:55:00
4:15 AM,2.3,-2.6,80,29.90,10.0,West,8.1,-,N/A,,Clear,280,2013-12-15 10:15:00
4:35 AM,2.3,-2.7,79,29.91,10.0,WNW,10.4,19.6,N/A,,Clear,290,2013-12-15 10:35:00
4:55 AM,1.9,-3.3,79,29.92,10.0,West,10.4,-,N/A,,Clear,270,2013-12-15 10:55:00
5:15 AM,1.6,-3.5,79,29.92,10.0,West,11.5,20.7,N/A,,Clear,280,2013-12-15 11:15:00
5:35 AM,1.4,-4.0,78,29.92,10.0,WNW,10.4,-,N/A,,Clear,290,2013-12-15 11:35:00
5:55 AM,1.2,-4.0,79,29.92,10.0,WNW,6.9,16.1,N/A,,Clear,290,2013-12-15 11:55:00
6:15 AM,0.5,-4.2,81,29.93,10.0,WNW,8.1,-,N/A,,Scattered Clouds,290,2013-12-15 12:15:00
6:35 AM,0.3,-4.5,80,29.93,10.0,WNW,10.4,18.4,N/A,,Scattered Clouds,300,2013-12-15 12:35:00
6:55 AM,-0.4,-5.4,79,29.93,10.0,WNW,10.4,-,N/A,,Scattered Clouds,300,2013-12-15 12:55:00
7:15 AM,-0.8,-5.8,79,29.93,10.0,WNW,9.2,-,N/A,,Scattered Clouds,290,2013-12-15 13:15:00
7:35 AM,-1.3,-6.3,79,29.94,10.0,WNW,10.4,16.1,N/A,,Mostly Cloudy,290,2013-12-15 13:35:00
7:55 AM,-1.5,-6.7,78,29.96,10.0,WNW,9.2,-,N/A,,Overcast,290,2013-12-15 13:55:00
8:15 AM,-2.2,-7.6,78,29.96,10.0,WNW,9.2,-,N/A,,Overcast,290,2013-12-15 14:15:00
8:35 AM,-1.8,-7.6,76,29.96,10.0,WNW,6.9,-,N/A,,Scattered Clouds,300,2013-12-15 14:35:00
8:55 AM,-1.8,-7.8,76,29.96,10.0,WNW,9.2,-,N/A,,Clear,290,2013-12-15 14:55:00
9:15 AM,-1.7,-8.1,74,29.96,10.0,WNW,6.9,-,N/A,,Clear,300,2013-12-15 15:15:00
9:35 AM,-1.5,-8.5,72,29.97,10.0,WNW,9.2,16.1,N/A,,Clear,290,2013-12-15 15:35:00
9:55 AM,-1.1,-8.7,70,29.97,7.0,West,10.4,16.1,N/A,,Clear,280,2013-12-15 15:55:00
10:15 AM,-0.9,-8.5,70,29.98,10.0,West,10.4,17.3,N/A,,Clear,280,2013-12-15 16:15:00
10:35 AM,-1.1,-9.0,69,29.98,7.0,West,12.7,19.6,N/A,Snow,Light Snow,280,2013-12-15 16:35:00
10:55 AM,-1.3,-9.4,69,29.97,7.0,WNW,11.5,18.4,N/A,Snow,Light Snow,290,2013-12-15 16:55:00
11:15 AM,-0.9,-9.4,67,29.97,10.0,West,10.4,17.3,N/A,Snow,Light Snow,280,2013-12-15 17:15:00
11:35 AM,-0.4,-9.4,66,29.97,10.0,West,10.4,-,N/A,,Clear,280,2013-12-15 17:35:00
11:55 AM,-0.8,-10.1,65,29.96,10.0,West,12.7,17.3,N/A,,Clear,260,2013-12-15 17:55:00
12:15 PM,-0.0,-9.9,63,29.96,10.0,West,12.7,19.6,N/A,,Clear,270,2013-12-15 18:15:00
12:35 PM,0.5,-9.8,62,29.96,10.0,West,9.2,16.1,N/A,,Clear,280,2013-12-15 18:35:00
12:55 PM,0.7,-10.3,60,29.96,10.0,WNW,8.1,18.4,N/A,,Clear,290,2013-12-15 18:55:00
1:15 PM,1.2,-10.5,58,29.96,10.0,West,6.9,-,N/A,,Clear,280,2013-12-15 19:15:00
1:35 PM,1.2,-10.7,58,29.96,10.0,WNW,6.9,-,N/A,,Clear,290,2013-12-15 19:35:00
1:55 PM,1.4,-10.8,57,29.97,10.0,WNW,12.7,18.4,N/A,,Clear,300,2013-12-15 19:55:00
2:15 PM,1.2,-11.0,57,29.98,10.0,WNW,6.9,-,N/A,,Clear,290,2013-12-15 20:15:00
2:35 PM,0.7,-11.2,57,29.98,10.0,West,9.2,-,N/A,,Clear,280,2013-12-15 20:35:00
2:55 PM,0.1,-11.4,58,29.98,10.0,West,11.5,18.4,N/A,,Clear,270,2013-12-15 20:55:00
3:15 PM,-0.4,-12.1,58,29.99,10.0,WNW,9.2,17.3,N/A,,Clear,300,2013-12-15 21:15:00
3:35 PM,-0.4,-12.1,58,30.00,10.0,West,6.9,-,N/A,,Clear,270,2013-12-15 21:35:00
3:55 PM,-0.9,-12.3,59,30.01,10.0,WNW,6.9,-,N/A,,Clear,290,2013-12-15 21:55:00
4:15 PM,-1.7,-12.8,59,30.01,10.0,West,5.8,-,N/A,,Clear,280,2013-12-15 22:15:00
4:35 PM,-2.4,-13.0,61,30.01,10.0,WNW,5.8,-,N/A,,Clear,290,2013-12-15 22:35:00
4:55 PM,-3.1,-13.0,63,30.02,10.0,West,8.1,-,N/A,,Clear,280,2013-12-15 22:55:00
5:15 PM,-3.3,-13.0,63,30.03,10.0,West,3.5,-,N/A,,Clear,280,2013-12-15 23:15:00
5:35 PM,-4.0,-13.5,64,30.03,10.0,WNW,5.8,-,N/A,,Clear,290,2013-12-15 23:35:00
5:55 PM,-4.2,-13.5,64,30.03,10.0,WNW,5.8,-,N/A,,Clear,290,2013-12-15 23:55:00
6:15 PM,-4.9,-13.9,65,30.03,10.0,WNW,5.8,-,N/A,,Clear,300,2013-12-16 00:15:00
6:35 PM,-4.9,-13.9,65,30.04,10.0,WNW,4.6,-,N/A,,Clear,300,2013-12-16 00:35:00
6:55 PM,-5.8,-14.1,67,30.05,10.0,WNW,4.6,-,N/A,,Clear,290,2013-12-16 00:55:00
7:15 PM,-6.0,-14.3,67,30.06,10.0,West,3.5,-,N/A,,Clear,280,2013-12-16 01:15:00
7:35 PM,-6.5,-14.8,67,30.06,10.0,WNW,4.6,-,N/A,,Clear,290,2013-12-16 01:35:00
7:55 PM,-6.9,-14.8,68,30.06,10.0,WNW,4.6,-,N/A,,Clear,290,2013-12-16 01:55:00
8:15 PM,-7.4,-14.8,70,30.07,10.0,WNW,3.5,-,N/A,,Clear,290,2013-12-16 02:15:00
8:35 PM,-7.8,-14.8,71,30.07,10.0,Calm,Calm,-,N/A,,Clear,0,2013-12-16 02:35:00
8:55 PM,-8.1,-14.8,73,30.07,10.0,West,3.5,-,N/A,,Clear,270,2013-12-16 02:55:00
9:15 PM,-8.7,-15.2,73,30.08,10.0,West,3.5,-,N/A,,Clear,280,2013-12-16 03:15:00
9:35 PM,-8.5,-14.8,74,30.07,10.0,NW,3.5,-,N/A,,Clear,310,2013-12-16 03:35:00
9:55 PM,-8.5,-14.8,74,30.08,10.0,WNW,3.5,-,N/A,,Clear,290,2013-12-16 03:55:00
10:15 PM,-8.5,-14.8,74,30.08,10.0,Calm,Calm,-,N/A,,Clear,0,2013-12-16 04:15:00
10:35 PM,-8.7,-14.8,75,30.08,10.0,Calm,Calm,-,N/A,,Clear,0,2013-12-16 04:35:00
10:55 PM,-8.9,-14.8,75,30.08,10.0,Calm,Calm,-,N/A,,Clear,0,2013-12-16 04:55:00
11:15 PM,-8.9,-14.8,75,30.08,10.0,Calm,Calm,-,N/A,,Clear,0,2013-12-16 05:15:00
11:35 PM,-9.4,-14.8,77,30.08,10.0,Calm,Calm,-,N/A,,Clear,0,2013-12-16 05:35:00
11:55 PM,-9.9,-14.8,79,30.08,10.0,Calm,Calm,-,N/A,,Clear,0,2013-12-16 05:55:00